EW4993 Weather Reports


Display with metric or nautical units.
time (UTC)temp
F
wind
direction
speed
MPH
gust
MPH
rain 1hr
in
rain 24hr
in
rain mn
in
humidity
%
barometer
mb
20260903194514 92 134 7.0 13.0 0.00 0.00 0.00 57 986.9
20260903193016 91 169 7.0 14.0 0.00 0.00 0.00 59 987.0
20260903191603 91 157 7.0 15.0 0.00 0.00 0.00 59 987.3
20260903190055 90 165 11.0 13.0 0.00 0.00 0.00 60 987.6
20260903184558 90 134 7.0 11.0 0.00 0.00 0.00 62 987.8
20260903183056 89 133 8.0 12.0 0.00 0.00 0.00 62 987.9
20260903181550 89 165 6.0 10.0 0.00 0.00 0.00 61 988.0
20260903180048 89 186 8.0 11.0 0.00 0.00 0.00 62 988.3
20260903174547 88 178 7.0 11.0 0.00 0.00 0.00 64 988.5
20260903173045 88 173 10.0 13.0 0.00 0.00 0.00 64 988.6
20260903171531 88 182 9.0 12.0 0.00 0.00 0.00 64 988.8
20260903170040 88 157 8.0 12.0 0.00 0.00 0.00 64 988.8
20260903164531 87 191 6.0 10.0 0.00 0.00 0.00 64 989.0
20260903163036 87 178 7.0 10.0 0.00 0.00 0.00 64 989.1
20260903161525 87 213 6.0 10.0 0.00 0.00 0.00 65 988.9
20260903160023 87 223 8.0 17.0 0.00 0.00 0.00 65 988.6
20260903154520 86 218 9.0 16.0 0.00 0.00 0.00 66 988.3
20260903153017 86 220 10.0 18.0 0.00 0.00 0.00 67 988.1
20260903151608 85 242 15.0 19.0 0.00 0.00 0.00 67 988.1
20260903150101 84 204 11.0 16.0 0.00 0.00 0.00 67 988.1
20260903144538 84 227 16.0 22.0 0.00 0.00 0.00 66 988.0
20260903143038 83 221 11.0 17.0 0.00 0.00 0.00 63 988.0
20260903141533 82 223 12.0 17.0 0.00 0.00 0.00 61 988.0
20260903140029 82 247 10.0 16.0 0.00 0.00 0.00 59 988.1
20260903134528 82 219 9.0 16.0 0.00 0.00 0.00 57 988.1
20260903133026 81 232 12.0 18.0 0.00 0.00 0.00 56 988.2
20260903131523 81 227 11.0 17.0 0.00 0.00 0.00 53 988.2
20260903130024 80 205 9.0 15.0 0.00 0.00 0.00 52 988.1
20260903124512 80 229 11.0 16.0 0.00 0.00 0.00 51 988.0
20260903123008 80 233 10.0 17.0 0.00 0.00 0.00 51 987.8
20260903121511 80 230 11.0 17.0 0.00 0.00 0.00 50 987.7
20260903120007 80 224 11.0 14.0 0.00 0.00 0.00 50 987.7
20260903114506 80 218 10.0 13.0 0.00 0.00 0.00 49 987.6
20260903113004 80 221 9.0 16.0 0.00 0.00 0.00 48 987.6
20260903111503 80 221 8.0 11.0 0.00 0.00 0.00 48 987.6
20260903110003 80 196 8.0 12.0 0.00 0.00 0.00 48 987.8
20260903104548 80 211 7.0 10.0 0.00 0.00 0.00 49 987.6
20260903103043 80 210 7.0 12.0 0.00 0.00 0.00 49 987.5
20260903101540 80 215 8.0 16.0 0.00 0.00 0.00 50 987.4
20260903100029 80 226 9.0 16.0 0.00 0.00 0.00 51 987.4
20260903094505 80 222 10.0 16.0 0.00 0.00 0.00 53 987.4
20260903093003 80 218 10.0 16.0 0.00 0.00 0.00 54 987.4
20260903091605 80 226 11.0 18.0 0.00 0.00 0.00 55 987.4
20260903090041 80 234 9.0 17.0 0.00 0.00 0.00 55 987.6
20260903084541 80 226 9.0 14.0 0.00 0.00 0.00 56 987.7
20260903083025 80 221 8.0 15.0 0.00 0.00 0.00 57 987.7
20260903081521 80 231 8.0 12.0 0.00 0.00 0.00 59 987.7
20260903080010 79 217 7.0 10.0 0.00 0.00 0.00 59 987.8
20260903074502 79 221 7.0 10.0 0.00 0.00 0.00 59 987.7
20260903073050 79 208 7.0 11.0 0.00 0.00 0.00 60 987.7
20260903071545 79 198 7.0 10.0 0.00 0.00 0.00 61 987.7
20260903070032 79 208 6.0 9.0 0.00 0.00 0.00 61 987.9
20260903064531 79 208 7.0 10.0 0.00 0.00 0.00 62 988.0
20260903063031 79 202 6.0 10.0 0.00 0.00 0.00 64 988.2
20260903061531 79 178 5.0 9.0 0.00 0.00 0.00 65 988.3
20260903060029 79 188 7.0 10.0 0.00 0.00 0.00 66 988.3
20260903054529 80 176 8.0 11.0 0.00 0.00 0.00 67 988.3
20260903053030 80 186 8.0 15.0 0.00 0.00 0.00 67 988.3
20260903051527 81 178 8.0 12.0 0.00 0.00 0.00 68 988.3
20260903050020 81 183 6.0 10.0 0.00 0.00 0.00 68 988.2
20260903044517 81 188 6.0 11.0 0.00 0.00 0.00 68 988.1
20260903043056 82 178 9.0 11.0 0.00 0.00 0.00 68 988.1
20260903041609 82 159 5.0 9.0 0.00 0.00 0.00 68 988.2
20260903040113 82 162 5.0 11.0 0.00 0.00 0.00 68 988.2
20260903034557 83 138 8.0 13.0 0.00 0.00 0.00 68 988.3
20260903033054 83 121 6.0 13.0 0.00 0.00 0.00 67 988.3
20260903031553 83 125 4.0 9.0 0.00 0.00 0.00 67 988.0
20260903030052 84 101 4.0 12.0 0.00 0.00 0.00 67 987.6
20260903024552 84 109 4.0 11.0 0.00 0.00 0.00 66 987.4
20260903023035 86 108 8.0 13.0 0.00 0.00 0.00 64 987.1
20260903021534 88 101 8.0 12.0 0.00 0.00 0.00 57 986.8
20260903020023 89 125 1.0 7.0 0.00 0.00 0.00 51 986.6
20260903014522 91 136 3.0 8.0 0.00 0.00 0.00 48 986.3
20260903013021 92 163 3.0 7.0 0.00 0.00 0.00 48 986.1
20260903011521 93 170 1.0 5.0 0.00 0.00 0.00 46 985.9
20260903010019 94 196 5.0 8.0 0.00 0.00 0.00 46 985.9
20260903004519 94 71 0.0 4.0 0.00 0.00 0.00 44 985.8
20260903003019 95 71 1.0 4.0 0.00 0.00 0.00 43 985.8
20260903001518 96 80 4.0 7.0 0.00 0.00 0.00 42 985.6
20260902234602 96 111 0.0 4.0 0.00 0.00 0.00 42 985.6
20260902233042 96 112 0.0 4.0 0.00 0.00 0.00 42 985.7
20260902231542 96 117 2.0 7.0 0.00 0.00 0.00 43 985.7
20260902230023 96 113 0.0 3.0 0.00 0.00 0.00 43 985.6
20260902224522 96 101 3.0 7.0 0.00 0.00 0.00 43 985.6
20260902223010 96 278 0.0 5.0 0.00 0.00 0.00 42 985.8
20260902221509 96 290 1.0 9.0 0.00 0.00 0.00 43 985.8
20260902220008 96 206 4.0 7.0 0.00 0.00 0.00 41 985.8
20260902214508 97 227 6.0 9.0 0.00 0.00 0.00 41 985.9
20260902213006 97 185 3.0 7.0 0.00 0.00 0.00 40 985.9
20260902211510 97 213 5.0 6.0 0.00 0.00 0.00 40 985.9
20260902210003 97 229 4.0 10.0 0.00 0.00 0.00 40 986.1
20260902204503 97 225 6.0 9.0 0.00 0.00 0.00 40 986.3
20260902203043 96 184 4.0 8.0 0.00 0.00 0.00 40 986.5
20260902201542 96 167 4.0 8.0 0.00 0.00 0.00 41 986.6
20260902200030 96 133 2.0 5.0 0.00 0.00 0.00 42 986.9